Location: Newark
(3.0500°N, 36.0167°E)
Time: 02:15:29
(UTC+00:00)

A-11 Canister half - Pass Details

Date: 27 August 2019
Orbit: 1527 x 1682 km, 47.3° (Epoch: 22 October)

Event Time Altitude Azimuth Distance (km) Brightness Sun altitude
Rises 04:34:59 0° 210° (SSW) 4,694 11.2 14.6°
Reaches altitude 10° 04:38:05 10° 206° (SSW) 3,723 10.7 15.4°
Maximum altitude 04:47:18 58° 129° (SE) 1,794 10.0 17.7°
Drops below altitude 10° 04:56:45 10° 52° (NE) 3,830 12.4 20.0°
Sets 04:59:58 0° 49° (NE) 4,836 12.6 20.8°
